Date String (YYYY-MM-DD hh:mm:ss) UTC,Instrument flags,absolute air pressure of the measurement (hPa),sample flow rate (lpm),inlet stack bypass flow (lpm),air temperature of the measurement (°C),ambient temperature measured by the external sensor (°C),aerosol sample conditioner tube jacket temperature (°C),OPC LED temperature (°C),internal box temperature (°C),relative humidity of the measurement (%),span deviation,mass concentration of particles derived from Lorenz-Mie calculation of OPC scattering (μg/m³),mass concentration of particles derived from Lorenz-Mie calculation of OPC scattering (μg/m³),mass concentration of particles derived from Lorenz-Mie calculation of OPC scattering (μg/m³)
DateTimeUTC,F1_M11,P_M11,Q1_M11,Q2_M11,T1_M11,T2_M11,T3_M11,T4_M11,T5_M11,U1_M11,ZSPAN_M11,X2_M11,X0_M11,X1_M11
2023-12-04 09:00:00,SystemResetWarning,0825.5,5.00,000.00,018.9,018.1,000.0,027.3,020.1,13.1,0000.0,0002.81,0005.66,0002.15
2023-12-04 09:01:00,SystemResetWarning,0825.7,5.00,000.00,018.9,018.1,000.0,027.3,020.0,13.1,0000.0,0002.88,0005.86,0002.15
2023-12-04 09:02:00,SystemResetWarning,0825.8,5.00,000.00,018.9,018.1,000.0,027.3,020.0,13.2,0000.0,0002.88,0005.63,0002.16
2023-12-04 09:03:00,SystemResetWarning,0825.9,5.00,000.00,018.9,018.0,000.0,027.3,020.0,13.3,0000.0,0002.87,0004.70,0002.16
2023-12-04 09:04:00,SystemResetWarning,0825.8,5.00,000.00,018.9,018.0,000.0,027.3,020.0,13.3,0000.0,0002.94,0005.03,0002.16
2023-12-04 09:05:00,SystemResetWarning,0825.9,5.00,000.00,018.9,018.0,000.0,027.3,020.0,13.3,0000.0,0002.93,0005.22,0002.16
2023-12-04 09:06:00,SystemResetWarning,0826.0,5.00,000.00,018.9,018.0,000.0,027.3,020.0,13.4,0000.0,0002.98,0005.30,0002.17
2023-12-04 09:07:00,SystemResetWarning,0826.0,5.00,000.00,018.9,018.0,000.0,027.3,020.0,13.4,0000.0,0003.03,0005.26,0002.18
2023-12-04 09:08:00,SystemResetWarning,0826.0,5.00,000.00,018.9,018.0,000.0,027.3,020.0,13.4,0000.0,0003.05,0005.21,0002.19
2023-12-04 09:09:00,SystemResetWarning,0826.2,5.00,000.00,018.9,018.0,000.0,027.3,020.0,13.4,0000.0,0003.09,0005.22,0002.20
2023-12-04 09:10:00,SystemResetWarning,0826.0,5.00,000.00,018.9,018.0,000.0,027.3,020.0,13.3,0000.0,0003.09,0005.17,0002.21
2023-12-04 09:11:00,SystemResetWarning,0826.1,5.00,000.00,018.9,018.0,000.0,027.3,020.0,13.3,0000.0,0003.10,0005.11,0002.27
2023-12-04 09:12:00,SystemResetWarning,0826.2,5.00,000.00,018.9,018.0,000.0,027.2,020.0,13.3,0000.0,0003.07,0004.97,0002.30
2023-12-04 09:13:00,SystemResetWarning,0826.2,5.00,000.00,018.9,018.0,000.0,027.2,020.0,13.4,0000.0,0003.10,0005.14,0002.32
2023-12-04 09:14:00,SystemResetWarning,0826.1,5.00,000.00,018.9,017.9,000.0,027.2,020.0,13.4,0000.0,0003.13,0005.65,0002.33
2023-12-04 09:15:00,SystemResetWarning,0826.0,5.00,000.00,018.9,017.9,000.0,027.2,020.0,13.3,0000.0,0003.10,0005.43,0002.32
2023-12-04 09:16:00,SystemResetWarning,0826.1,5.00,000.00,018.8,017.9,000.0,027.2,020.0,13.3,0000.0,0003.12,0005.17,0002.36
2023-12-04 09:17:00,SystemResetWarning,0826.2,5.01,000.00,018.8,017.9,000.0,027.2,020.0,13.3,0000.0,0003.12,0005.41,0002.40
2023-12-04 09:18:00,SystemResetWarning,0826.2,5.00,000.00,018.8,017.9,000.0,027.2,020.0,13.3,0000.0,0003.11,0006.68,0002.43
2023-12-04 09:19:00,SystemResetWarning,0825.9,5.00,000.00,018.8,017.9,000.0,027.2,020.0,13.3,0000.0,0003.08,0006.64,0002.44
2023-12-04 09:20:00,SystemResetWarning,0825.9,5.00,000.00,018.8,017.9,000.0,027.2,020.0,13.3,0000.0,0003.05,0006.60,0002.46
2023-12-04 09:21:00,SystemResetWarning,0826.2,5.00,000.00,018.8,017.9,000.0,027.2,020.0,13.3,0000.0,0003.10,0006.75,0002.49
2023-12-04 09:22:00,SystemResetWarning,0826.3,5.00,000.00,018.8,017.8,000.0,027.2,020.0,13.4,0000.0,0003.12,0006.86,0002.52
2023-12-04 09:23:00,SystemResetWarning,0826.1,5.00,000.00,018.8,017.8,000.0,027.2,020.0,13.4,0000.0,0003.15,0007.27,0002.52
2023-12-04 09:24:00,SystemResetWarning,0826.0,5.00,000.00,018.8,017.8,000.0,027.2,020.0,13.4,0000.0,0003.16,0007.69,0002.53
2023-12-04 09:25:00,SystemResetWarning,0825.9,5.00,000.00,018.8,017.8,000.0,027.2,020.0,13.3,0000.0,0003.16,0007.51,0002.55
2023-12-04 09:26:00,SystemResetWarning,0825.9,5.00,000.00,018.8,017.8,000.0,027.2,020.0,13.2,0000.0,0003.20,0007.52,0002.57
2023-12-04 09:27:00,SystemResetWarning,0826.1,5.00,000.00,018.8,017.9,000.0,027.2,020.0,13.1,0000.0,0003.23,0007.56,0002.59
2023-12-04 09:28:00,SystemResetWarning,0826.0,5.00,000.00,018.8,017.9,000.0,027.2,020.0,13.2,0000.0,0003.22,0007.51,0002.58
2023-12-04 09:29:00,SystemResetWarning,0825.9,5.00,000.00,018.8,017.9,000.0,027.2,020.0,13.2,0000.0,0003.23,0006.56,0002.60
2023-12-04 09:30:00,SystemResetWarning,0826.0,5.00,000.00,018.8,017.9,000.0,027.2,020.0,13.1,0000.0,0003.27,0006.42,0002.62
2023-12-04 09:31:00,SystemResetWarning,0826.0,5.00,000.00,018.8,017.9,000.0,027.2,020.0,13.0,0000.0,0003.28,0006.64,0002.62
2023-12-04 09:32:00,SystemResetWarning,0826.1,5.00,000.00,018.8,017.9,000.0,027.2,020.0,12.8,0000.0,0003.24,0006.53,0002.60
2023-12-04 09:33:00,SystemResetWarning,0826.0,5.00,000.00,018.8,017.9,000.0,027.2,020.0,12.8,0000.0,0003.21,0006.39,0002.57
2023-12-04 09:34:00,SystemResetWarning,0825.9,5.00,000.00,018.8,017.9,000.0,027.2,020.0,13.0,0000.0,0003.18,0007.02,0002.54
2023-12-04 09:35:00,SystemResetWarning,0825.9,5.00,000.00,018.8,017.9,000.0,027.2,020.0,13.0,0000.0,0003.16,0006.29,0002.50
2023-12-04 09:36:00,SystemResetWarning,0825.9,5.01,000.00,018.8,017.8,000.0,027.2,020.0,13.1,0000.0,0003.14,0006.46,0002.47
2023-12-04 09:37:00,SystemResetWarning,0825.9,5.00,000.00,018.8,017.8,000.0,027.2,020.0,13.0,0000.0,0003.13,0007.40,0002.42
2023-12-04 09:38:00,SystemResetWarning,0825.9,5.01,000.00,018.8,017.8,000.0,027.2,020.0,13.0,0000.0,0003.06,0007.35,0002.37
2023-12-04 09:39:00,SystemResetWarning,0825.9,5.01,000.00,018.8,017.8,000.0,027.2,020.0,12.7,0000.0,0003.05,0007.41,0002.31
2023-12-04 09:40:00,SystemResetWarning,0825.8,5.00,000.00,018.8,017.8,000.0,027.2,020.0,12.6,0000.0,0002.99,0007.34,0002.23
2023-12-04 09:41:00,SystemResetWarning,0825.9,5.00,000.00,018.8,017.8,000.0,027.2,020.0,12.4,0000.0,0002.90,0007.61,0002.15
2023-12-04 09:42:00,SystemResetWarning,0825.7,5.00,000.00,018.8,017.8,000.0,027.2,020.0,12.4,0000.0,0002.87,0007.47,0002.10
2023-12-04 09:43:00,SystemResetWarning,0825.7,5.00,000.00,018.8,017.8,000.0,027.2,020.0,12.5,0000.0,0002.85,0008.37,0002.07
2023-12-04 09:44:00,SystemResetWarning,0825.7,5.00,000.00,018.8,017.8,000.0,027.2,020.0,12.5,0000.0,0002.85,0008.48,0002.04
2023-12-04 09:45:00,SystemResetWarning,0825.9,5.00,000.00,018.8,017.8,000.0,027.2,020.0,12.5,0000.0,0002.83,0007.96,0002.02
2023-12-04 09:46:00,SystemResetWarning,0825.9,5.00,000.00,018.8,017.8,000.0,027.2,020.0,12.7,0000.0,0002.75,0007.94,0001.99
2023-12-04 09:47:00,SystemResetWarning,0826.0,5.00,000.00,018.8,017.8,000.0,027.2,020.0,12.8,0000.0,0002.67,0007.79,0001.92
2023-12-04 09:48:00,SystemResetWarning,0825.9,5.00,000.00,018.8,017.8,000.0,027.2,020.0,12.9,0000.0,0002.54,0007.44,0001.85
2023-12-04 09:49:00,SystemResetWarning,0825.9,5.01,000.00,018.8,017.8,000.0,027.2,020.0,12.9,0000.0,0002.53,0007.90,0001.81
2023-12-04 09:50:00,SystemResetWarning,0825.9,5.00,000.00,018.8,017.8,000.0,027.2,020.0,12.8,0000.0,0002.51,0007.98,0001.76
2023-12-04 09:51:00,SystemResetWarning,0825.9,5.01,000.00,018.8,017.8,000.0,027.2,020.0,12.7,0000.0,0002.41,0007.89,0001.72
2023-12-04 09:52:00,SystemResetWarning,0825.9,5.00,000.00,018.8,017.8,000.0,027.2,020.0,12.8,0000.0,0002.39,0007.57,0001.69
2023-12-04 09:53:00,SystemResetWarning,0825.9,4.99,000.00,018.8,017.8,000.0,027.2,020.0,12.7,0000.0,0002.35,0007.66,0001.65
2023-12-04 09:54:00,SystemResetWarning,0825.9,4.99,000.00,018.8,017.8,000.0,027.2,020.0,12.7,0000.0,0002.33,0006.68,0001.60
2023-12-04 09:55:00,SystemResetWarning,0825.9,5.00,000.00,018.8,017.8,000.0,027.2,020.0,12.7,0000.0,0002.26,0006.10,0001.57
2023-12-04 09:56:00,SystemResetWarning,0825.8,5.00,000.00,018.8,017.8,000.0,027.2,020.0,12.8,0000.0,0002.24,0006.06,0001.54
2023-12-04 09:57:00,SystemResetWarning,0825.7,5.00,000.00,018.8,017.8,000.0,027.2,020.0,13.1,0000.0,0002.24,0005.83,0001.51
2023-12-04 09:58:00,SystemResetWarning,0825.8,5.00,000.00,018.8,017.8,000.0,027.2,020.0,13.6,0000.0,0002.25,0005.67,0001.52
2023-12-04 09:59:00,SystemResetWarning,0825.8,5.00,000.00,018.8,017.8,000.0,027.2,020.0,13.5,0000.0,0002.24,0005.41,0001.52
